Flag for Portugal Weather past 2 weeks in Portimão, Portugal

Now
73 °F

Clear.


Feels Like: 74 °F
Forecast: 66 / 83 °F
Wind: 6 mph from South

Location: Faro / Aeroporto

Current Time: Oct 1, 2014 at 11:44:56 PM

Latest Report: Oct 1, 2014 at 11:00 PM


Visibility: 10 mi

Pressure: 30.09 "Hg

Humidity: 78%

Dew point: 66 °F

Location of PortimãoLocation

Historic Weather in Portimão — Graph

°F

Portimão temperature yesterday

Maximum temperature yesterday: 82 °F (at 3:30 PM)
Minimum temperature yesterday: 70 °F (at 3:30 AM)
Average temperature yesterday: 75 °F

Past Weeks' High & Low Weather Summary

 TemperatureHumidityPressure
High84 °F (Oct 1, 2:30 PM)100% (Sep 19, 10:30 AM)30.18 "Hg (Sep 19, 10:30 AM)
Low63 °F (Sep 22, 4:00 AM)45% (Sep 30, 12:00 PM)29.74 "Hg (Sep 17, 2:30 AM)
Average71 °F80%30.00 "Hg
* Reported Sep 16 10:00 PM — Oct 1 10:30 PM, Portimão, Weather by CustomWeather, © 2014

Note: Actual official high and low records may vary slightly from our data, if they occured in-between our weather recording intervals... More about our weather records

Advertising

Portimão weather history for previous 24 hours

 ConditionsComfort  
Time TempWeatherWind HumidityBarometerVisibility
10:30 PM
Oct 1
77 °FClear.8 mph69%30.09 "Hg10 mi
10:00 PM75 °FClear.5 mph69%30.07 "Hg10 mi
9:30 PM77 °FClear.5 mph69%30.07 "Hg10 mi
9:00 PM75 °FClear.2 mph74%30.07 "Hg10 mi
8:30 PM77 °FPassing clouds.5 mph65%30.07 "HgN/A
8:00 PM79 °FPassing clouds.5 mph61%30.04 "HgN/A
7:30 PM79 °FPassing clouds.8 mph61%30.04 "HgN/A
7:00 PM84 °FPassing clouds.6 mph48%30.04 "HgN/A
6:30 PM82 °FPassing clouds.10 mph55%30.04 "HgN/A
6:00 PM84 °FSunny.12 mph51%30.04 "Hg10 mi
5:30 PM84 °FSunny.12 mph48%30.04 "Hg10 mi
5:00 PM84 °FSunny.13 mph48%30.04 "Hg10 mi
4:30 PM84 °FSunny.13 mph48%30.04 "Hg10 mi
4:00 PM84 °FSunny.14 mph48%30.04 "Hg10 mi
3:30 PM84 °FSunny.14 mph51%30.04 "Hg10 mi
3:00 PM81 °FSunny.14 mph58%30.07 "Hg10 mi
2:30 PM84 °FPassing clouds.6 mph51%30.04 "HgN/A
2:00 PM81 °FPassing clouds.9 mph58%30.07 "HgN/A
1:30 PM81 °FSunny.10 mph58%30.07 "Hg10 mi
1:00 PM82 °FSunny.9 mph48%30.07 "Hg10 mi
12:30 PM81 °FSunny.9 mph51%30.09 "Hg10 mi
12:00 PM79 °FSunny.14 mph58%30.09 "Hg10 mi
11:30 AM79 °FSunny.12 mph58%30.09 "Hg10 mi
11:00 AM81 °FSunny.12 mph54%30.09 "Hg10 mi
10:30 AM81 °FPassing clouds.12 mph51%30.09 "HgN/A
10:00 AM77 °FSunny.8 mph57%30.09 "Hg10 mi
9:30 AM77 °FSunny.7 mph54%30.09 "Hg10 mi
9:00 AM73 °FSunny.2 mph65%30.07 "Hg10 mi
8:30 AM75 °FPassing clouds.8 mph54%30.07 "HgN/A
8:00 AM73 °FPassing clouds.7 mph57%30.07 "HgN/A
7:30 AM73 °FPassing clouds.8 mph61%30.07 "HgN/A
7:00 AM72 °FPassing clouds.7 mph61%30.07 "HgN/A
6:30 AM72 °FClear.7 mph61%30.07 "Hg10 mi
6:00 AM70 °FClear.5 mph64%30.07 "Hg10 mi
5:30 AM70 °FClear.8 mph73%30.07 "Hg10 mi
5:00 AM72 °FClear.6 mph73%30.07 "Hg10 mi
4:30 AM72 °FClear.6 mph69%30.07 "Hg10 mi
4:00 AM72 °FClear.3 mph73%30.07 "Hg10 mi
3:30 AM72 °FClear.3 mph73%30.07 "Hg10 mi
3:00 AM73 °FClear.3 mph69%30.07 "Hg10 mi
2:30 AM72 °FClear.3 mph73%30.07 "Hg10 mi
2:00 AM72 °FClear.5 mph73%30.07 "Hg10 mi
1:30 AM75 °FClear.12 mph54%30.07 "Hg10 mi
1:00 AM77 °FClear.10 mph51%30.07 "Hg10 mi
12:30 AM77 °FClear.10 mph51%30.07 "Hg10 mi
12:00 AM77 °FClear.9 mph51%30.07 "Hg10 mi
11:30 PM
Sep 30
77 °FClear.9 mph51%30.07 "Hg10 mi
11:00 PM77 °FClear.7 mph51%30.07 "Hg10 mi
Weather by CustomWeather, © 2014

See weather overviewHow to use our weather pages